Find Starlink 35638

NORAD ID: 66169 Int'l Des: 2025-240 Owner: SPXS Country: US Constellation: starlink operational
LEOCIRCULAR

Aktuelle Ansicht

3D-Globus wird geladen...

Über Starlink 35638

Beschreibung wird geladen...

Nächste Überflüge

Passes for default location (London). Set your location on the main map for personalized predictions.

Höhenverlauf

Loading altitude history...

Zweizeiliger Elementsatz

1 66169U 25240Z 26146.06816733 .00010716 00000-0 37333-3 0 9991
2 66169 53.1584 63.5088 0001155 68.5209 291.5915 15.30206266 33838
Epoch: 26. Mai 2026 • Age: 17 hours

Aktueller Status

Höhe 480.3 km
Geschwindigkeit 7.63 km/s
Subsatellitenpunkt -16.90°S, 96.27°E
Startdatum 25. Okt. 2025
Alter 0.5 years
Typ internet

Technische Details

Klassifizierung Payload
Masse 575.00 kg
Trockenmasse 530.00 kg
Gesamtmasse 575.00 kg
Länge 0.30 m
Durchmesser 4.10 m
Spannweite 29.00 m
Form Box + pan
Hersteller SPXS
Bus-Typ Starlink V2MO
Phasenstatus In Orbit
Besitzer/Staat SPXS/US

Most Searched